Theta_e
281 279 280 282 284 285 285 285 284 283 284 283 282 284 286 283 282 281 282 282 282 284 285 287 287 287 287 287 286 288 289 288 287 286 286 287 286 288 289 289 289 289 289 288 288 288 288 289 289 289 289 289 288 288 287 287 287 288 287 287 287 288 288 288 289 289 289 289 289 288 289 289 289 289 289 289 289 288 287 288 288 288 289 289 289 289 290
281 280 281 281 285 283 283 284 284 285 284 284 285 286 287 285 284 286 281 283 284 285 285 288 288 286 286 287 287 287 288 287 285 285 286 287 287 287 288 288 288 288 287 287 287 287 288 288 288 288 289 289 289 288 288 288 287 287 286 286 286 286 286 287 287 287 287 287 287 287 288 288 288 288 288 288 288 288 288 288 288 288 287 287 288 289 289
279 280 281 281 281 282 282 281 283 284 284 285 285 286 286 285 284 283 280 280 282 286 286 287 288 287 288 288 289 289 287 286 285 285 286 286 286 286 286 287 287 287 286 286 286 287 287 287 287 288 288 288 287 287 287 287 287 286 285 285 285 286 287 286 286 286 285 286 286 286 287 286 287 287 288 287 287 287 287 287 288 288 287 287 287 287 288
274 280 280 280 280 280 281 280 281 282 282 282 284 283 285 283 283 285 283 282 284 286 287 287 287 288 289 290 289 288 287 284 283 285 285 286 287 286 286 285 285 286 286 286 287 287 287 287 287 287 287 287 287 288 287 287 287 286 286 286 286 286 286 286 286 286 286 286 285 285 285 286 286 286 286 286 286 287 287 287 287 286 286 287 287 287 288
272 279 280 280 279 279 277 280 283 283 284 286 286 286 284 287 289 285 282 284 291 287 287 287 286 288 289 288 287 287 287 286 285 286 286 287 286 287 286 285 284 284 285 285 285 286 286 287 287 287 286 286 287 287 287 286 286 286 286 286 286 287 287 287 287 287 287 287 286 286 286 286 286 285 285 285 285 286 287 286 285 286 287 287 287 287 287
273 275 277 278 279 274 277 287 287 286 285 284 284 284 286 287 288 287 288 288 286 285 285 288 288 287 287 289 289 287 290 288 285 285 285 286 286 284 283 284 283 284 284 285 285 285 285 285 285 285 285 285 286 285 285 285 285 285 285 286 286 286 286 286 286 286 286 286 286 286 286 286 286 286 286 286 286 286 286 286 285 286 286 286 286 286 286
276 274 277 279 275 277 285 284 287 290 288 286 286 288 287 286 286 287 287 288 287 287 289 289 288 289 288 285 287 286 285 287 286 286 285 286 285 285 284 283 284 284 284 284 284 285 285 285 285 284 285 284 285 285 284 284 284 284 285 285 285 286 286 286 286 286 285 285 285 285 285 285 286 286 286 286 287 287 287 287 286 287 287 287 287 287 286
279 278 280 275 277 285 284 283 284 285 288 286 285 285 286 286 287 288 288 290 291 289 288 287 286 287 284 286 285 285 285 285 286 284 285 286 285 285 285 285 284 284 285 285 285 285 284 283 284 283 285 285 285 285 284 283 284 284 284 284 285 285 286 285 285 285 284 284 284 284 284 285 285 285 285 286 286 287 287 287 286 286 286 285 286 286 287
279 280 281 280 283 283 283 284 283 286 285 284 285 282 286 289 289 289 289 290 290 287 286 284 283 284 285 285 286 285 284 284 284 285 286 286 286 285 283 284 284 283 283 284 284 284 284 284 285 285 285 284 284 284 284 285 284 284 284 285 285 285 285 285 284 284 284 283 283 283 283 283 284 284 284 285 286 285 285 286 286 286 286 286 286 286 286
285 281 279 280 280 278 283 286 284 287 287 290 289 287 285 288 290 291 290 290 290 287 282 283 284 285 285 282 284 285 284 282 284 285 284 282 282 282 282 283 284 283 284 284 283 283 284 284 284 284 284 283 283 283 284 284 284 284 284 285 285 285 285 284 284 284 283 283 282 282 283 282 283 283 284 284 285 284 284 284 285 286 286 286 285 284 284
283 281 279 279 277 281 287 286 286 287 288 290 287 286 283 288 287 290 291 290 290 287 285 283 285 286 283 284 285 287 284 282 282 285 285 283 282 282 283 283 284 285 285 284 283 283 283 284 285 283 282 281 282 283 283 283 283 283 284 285 285 284 284 284 283 283 282 282 282 282 282 282 282 282 283 283 283 283 283 283 283 284 283 283 284 284 282
284 282 280 278 282 281 284 283 283 284 285 290 289 279 280 288 285 288 289 290 290 287 286 285 286 287 284 285 284 286 285 283 282 283 286 284 284 283 282 283 282 283 282 283 285 285 284 284 284 283 282 282 281 282 282 282 282 283 284 284 284 284 283 283 283 282 282 281 281 281 281 281 281 281 281 281 281 282 282 282 282 282 281 281 281 282 282
283 284 281 282 283 285 282 283 282 282 287 289 281 277 284 285 284 286 289 290 287 286 284 285 285 285 283 284 285 284 283 283 283 282 282 283 284 284 282 283 283 282 282 282 283 283 283 283 283 282 281 281 282 282 281 281 282 283 283 283 283 283 282 282 282 281 281 280 280 280 279 279 280 280 279 280 280 280 280 280 280 280 280 280 280 280 280
282 283 281 281 283 285 283 282 283 285 288 280 278 285 281 283 283 280 282 284 283 286 285 284 282 283 282 283 282 283 283 284 282 282 282 282 281 281 281 281 281 281 280 282 282 282 282 282 281 281 280 280 281 281 280 281 282 282 282 282 282 281 281 281 280 280 280 280 280 279 279 278 278 279 279 278 278 278 278 278 278 278 279 278 279 279 279
284 282 281 280 277 285 286 286 285 284 282 282 286 282 282 282 282 281 281 283 283 285 283 283 284 282 282 283 283 283 282 282 283 283 283 282 282 281 281 281 280 281 280 281 282 282 282 281 281 280 277 278 280 280 280 281 282 282 282 281 281 280 279 279 279 279 279 279 279 279 278 278 277 277 278 278 278 276 276 276 277 277 278 278 277 278 278
280 281 278 279 286 286 287 290 286 285 286 284 284 285 282 280 280 281 282 281 282 282 285 283 283 284 283 281 282 282 281 281 281 281 280 280 280 280 280 280 280 279 280 280 281 281 281 279 277 278 276 278 278 279 280 282 281 281 280 280 279 278 278 278 278 278 278 278 278 277 277 277 276 276 277 278 277 276 275 275 276 277 278 277 276 277 277
285 283 285 288 286 287 288 286 285 283 284 282 283 283 284 284 282 280 284 284 281 282 284 284 284 282 282 282 282 282 281 280 280 280 280 280 280 280 280 280 279 278 279 279 279 279 279 279 279 276 275 275 277 277 279 280 280 280 279 278 277 277 277 277 277 278 278 278 277 277 276 275 275 277 277 277 277 277 274 275 275 276 277 276 276 278 278
284 284 284 284 282 283 284 281 282 282 282 281 281 282 285 283 282 282 285 283 281 280 283 284 280 282 282 281 280 279 279 279 279 280 279 279 279 279 278 277 278 276 276 274 274 276 277 277 278 276 275 274 276 278 279 278 278 278 277 276 276 276 276 277 277 277 277 277 277 277 276 275 274 275 275 275 276 276 274 275 275 275 276 277 278 279 279
284 280 283 282 283 280 280 281 281 280 280 281 280 283 283 282 281 281 280 282 282 282 281 284 283 281 280 281 280 279 279 278 279 279 279 279 278 276 275 277 275 275 273 274 273 273 274 275 276 276 274 274 276 277 277 277 277 276 275 275 275 275 275 276 277 276 276 276 277 277 276 275 274 274 274 274 274 275 275 275 275 276 277 278 279 280 280
282 279 281 281 280 278 278 279 282 282 280 280 280 280 281 282 282 282 281 282 281 280 281 281 282 280 279 279 279 278 278 277 278 277 277 276 275 274 274 273 272 271 272 272 273 273 273 275 275 275 275 274 275 275 275 276 275 274 274 274 274 275 275 275 276 276 275 276 276 276 276 275 275 276 275 273 274 275 276 276 276 277 278 279 280 280 280
280 281 281 279 279 279 280 279 278 280 280 281 281 282 282 282 281 280 280 280 280 280 280 280 280 279 278 277 277 277 277 276 276 275 275 273 273 272 271 271 271 271 271 271 271 271 271 272 272 272 272 272 273 273 274 274 274 274 274 274 274 274 274 275 275 276 275 275 275 275 275 275 275 274 275 275 276 275 276 276 277 277 277 278 279 280 280
275 280 282 279 278 275 281 280 280 280 280 281 280 280 280 280 280 280 279 278 277 276 277 277 277 276 276 275 274 272 275 273 272 272 271 270 269 269 269 270 269 269 268 269 268 269 270 270 269 269 269 270 271 272 273 274 274 273 273 273 273 274 275 275 275 276 276 276 275 275 275 275 275 276 277 279 278 276 276 279 281 282 282 279 279 279 279
279 283 282 285 284 282 282 282 280 281 280 280 280 280 279 278 279 279 278 277 275 275 273 273 273 273 273 272 270 269 270 270 270 269 269 268 268 268 268 268 267 266 267 267 267 266 267 267 267 267 268 270 271 272 274 275 274 273 272 272 273 273 274 275 275 276 276 276 277 277 277 276 276 276 276 278 281 282 282 281 282 282 283 283 284 284 281
280 280 283 284 282 282 280 280 280 281 280 281 279 277 276 277 276 276 276 276 276 273 271 270 270 270 269 268 267 266 266 267 267 266 267 267 266 266 267 266 265 265 265 264 264 264 265 265 266 267 269 271 272 274 274 273 273 272 272 271 271 272 273 274 275 275 276 277 277 278 278 278 277 276 276 277 278 281 283 283 283 283 283 283 284 283 283
281 279 280 280 278 277 278 278 277 277 277 277 276 274 274 273 273 274 273 272 272 273 271 269 266 266 265 265 265 264 264 264 265 265 265 265 266 265 265 263 263 263 263 263 263 263 264 265 266 268 270 272 274 273 272 272 272 270 270 270 270 270 271 273 274 275 276 277 277 278 278 278 278 278 278 277 277 278 280 284 284 283 283 283 284 284 283
278 277 275 275 275 275 275 277 275 274 273 274 272 272 272 272 272 271 270 269 268 268 268 267 265 264 263 262 263 262 262 262 263 263 263 263 262 262 262 261 262 262 262 262 262 263 264 266 268 269 271 271 271 270 271 271 270 269 268 269 269 270 271 272 273 274 275 276 277 278 279 279 279 279 279 279 279 279 278 279 280 282 284 284 283 283 283
277 278 279 277 275 275 276 280 280 274 272 271 272 270 269 269 269 268 267 266 265 266 265 264 262 262 261 262 261 261 261 262 261 261 262 261 260 261 261 261 260 260 260 261 262 264 266 268 268 268 267 267 269 270 270 269 268 268 268 268 269 270 272 272 273 274 275 276 277 278 279 279 279 279 279 279 279 279 278 278 278 278 279 280 282 283 282
278 274 274 282 277 277 279 273 271 271 269 269 268 267 267 267 265 264 263 264 263 261 262 260 260 259 259 260 259 258 260 259 259 260 259 260 260 260 260 259 259 260 261 262 263 265 266 264 263 263 265 267 269 269 269 269 268 267 268 268 268 269 269 270 271 273 274 275 276 277 278 279 280 280 279 279 279 279 279 278 278 278 278 279 279 281 282
272 269 268 270 277 276 272 269 269 267 266 266 266 266 265 264 262 263 262 263 262 260 261 259 258 258 258 258 258 257 258 257 257 257 258 258 259 259 259 259 259 260 261 262 263 262 261 261 262 263 265 267 267 268 268 268 266 266 266 267 267 267 268 269 271 272 273 274 275 276 278 278 279 279 279 279 278 278 278 278 278 278 278 278 278 278 281
266 265 268 270 271 271 271 269 269 267 265 264 264 263 263 265 265 263 263 262 261 259 260 258 257 256 257 255 256 256 255 255 256 257 257 257 257 257 258 258 259 259 260 259 259 259 259 260 262 263 264 265 266 267 266 265 265 265 265 265 266 266 267 268 269 270 271 272 274 276 277 278 278 279 278 278 278 278 277 277 277 277 277 277 278 278 277
264 265 266 269 269 270 273 271 268 265 264 263 264 263 262 263 264 263 262 261 259 259 258 256 255 255 254 254 254 254 255 255 255 256 256 256 256 257 258 258 257 256 256 257 257 258 259 260 261 261 263 265 265 265 264 264 264 264 264 264 265 267 268 268 269 269 270 272 273 275 276 277 278 278 277 277 277 277 277 277 277 277 276 277 277 277 277
266 264 264 266 266 266 265 265 266 264 264 262 262 263 263 263 262 263 260 259 257 256 254 254 253 253 253 252 253 253 253 253 253 254 254 255 256 256 256 256 256 257 256 257 258 259 259 259 259 260 263 263 263 263 262 262 262 262 263 264 264 264 266 267 268 269 270 271 272 274 275 276 276 277 277 277 277 276 276 276 276 276 276 276 276 276 276
268 265 264 262 261 262 263 263 265 263 262 262 264 263 261 259 259 259 259 257 256 255 253 252 253 253 251 251 251 252 252 252 252 253 253 253 254 254 255 255 255 256 256 257 258 258 259 259 260 261 261 260 260 260 261 261 262 262 262 263 263 264 265 266 267 268 268 269 271 272 274 276 276 277 277 276 276 276 276 276 276 276 276 275 275 273 274
275 276 275 271 271 270 268 266 265 264 262 260 259 258 258 257 256 256 255 254 253 253 253 253 252 251 250 250 250 249 251 252 252 253 253 253 253 254 254 255 255 255 256 257 258 259 260 260 259 259 259 259 259 260 260 260 261 261 261 262 262 262 263 264 266 266 266 268 269 271 272 274 275 275 276 276 276 276 275 275 275 275 274 273 273 273 276
274 268 270 273 273 271 274 273 267 265 262 260 257 256 256 256 255 254 255 254 253 253 253 253 251 252 250 249 249 251 251 251 252 252 252 253 253 254 254 255 254 255 255 256 257 258 258 257 258 258 259 259 259 259 260 260 260 260 260 261 262 262 263 264 264 265 266 267 268 269 271 272 273 273 274 275 275 275 274 274 274 273 273 272 272 272 274
263 262 262 263 259 256 263 266 267 265 263 262 259 256 255 254 253 253 254 254 254 254 254 254 252 251 251 251 252 251 250 251 251 252 252 253 252 253 253 253 254 254 255 255 255 253 256 257 259 260 259 259 259 259 259 259 260 260 261 261 262 262 262 263 263 264 265 266 268 269 271 271 272 273 274 274 274 274 274 274 273 272 272 272 271 270 270
260 262 259 258 256 256 257 261 263 262 260 258 256 254 253 252 252 251 252 251 253 253 252 251 249 249 249 250 250 250 251 251 252 252 251 252 252 252 253 253 254 254 255 254 255 257 256 257 259 260 259 259 259 258 259 261 260 261 261 261 261 262 262 262 263 263 264 267 268 269 270 271 272 273 273 273 274 274 274 273 271 271 272 271 269 268 268
255 257 256 256 255 254 253 253 254 256 254 252 250 251 252 252 251 250 251 251 251 252 252 251 251 250 250 250 250 250 249 249 249 250 250 251 252 252 252 253 253 254 253 253 256 256 256 257 259 259 258 258 258 258 259 261 261 261 261 261 261 262 262 262 263 264 265 266 268 269 270 270 271 272 273 273 273 273 272 272 271 271 270 269 269 268 267
254 253 253 253 253 252 251 251 251 252 254 253 251 251 250 251 250 250 249 250 250 251 250 249 250 249 249 250 248 248 248 249 249 250 250 250 251 251 251 252 253 253 254 255 256 256 257 258 258 258 258 258 258 259 259 261 261 260 261 261 261 261 262 262 263 264 266 266 267 268 269 269 270 271 272 272 273 271 270 271 270 270 269 269 268 267 266
255 254 253 252 252 252 252 251 251 250 249 251 252 251 250 251 250 249 249 248 248 250 249 249 249 248 248 248 247 247 248 248 249 249 249 250 250 249 250 252 252 251 255 257 256 256 257 259 258 257 257 258 258 258 259 260 261 261 261 261 261 262 263 263 264 264 265 266 266 266 268 268 269 270 270 270 271 270 270 269 269 269 268 268 267 266 265
255 253 253 253 252 252 252 252 250 249 249 249 249 249 251 250 249 249 250 250 249 249 248 247 247 248 248 247 247 248 247 249 248 248 248 247 248 250 250 251 252 251 253 255 256 257 258 258 257 257 257 257 258 259 259 260 260 260 261 261 262 262 262 262 263 263 264 265 265 266 267 267 267 268 267 268 268 268 268 268 268 268 268 267 266 265 264
253 253 252 252 252 251 251 251 250 249 248 248 248 247 248 248 250 250 250 250 250 249 249 250 252 249 248 248 248 247 246 246 247 248 248 249 248 249 250 251 253 252 256 257 257 257 256 256 256 257 257 258 259 259 260 260 260 260 260 260 261 261 261 262 262 262 263 263 264 265 265 265 266 265 265 265 266 266 266 267 267 267 266 265 264 264 262
252 252 252 252 251 251 250 251 251 250 250 249 247 247 247 247 249 248 247 250 249 249 249 249 251 250 248 246 245 245 246 246 247 248 249 249 249 250 250 251 252 254 256 257 256 256 255 255 255 255 258 258 259 259 260 259 259 259 259 259 260 260 260 260 260 261 261 261 262 262 263 263 264 264 263 263 263 264 264 264 264 264 264 263 263 262 262
252 252 252 251 250 250 250 250 250 250 249 249 249 248 247 246 247 247 247 247 247 249 249 248 248 247 247 246 246 246 247 247 247 247 247 250 251 248 248 249 253 255 256 256 256 256 255 255 255 257 258 258 259 259 258 258 258 258 259 259 259 259 259 259 259 259 259 260 260 260 261 261 261 262 262 262 262 262 262 262 262 262 262 262 262 261 261
251 251 251 250 249 249 249 250 250 250 250 249 248 247 246 246 245 245 246 246 246 249 250 249 248 248 247 245 246 245 247 247 247 246 246 247 251 251 251 254 254 255 255 257 256 255 254 255 256 258 258 258 258 258 257 257 257 258 258 258 258 258 258 259 259 259 259 259 259 259 260 260 260 260 260 260 260 260 260 260 261 261 261 260 260 260 260
249 249 249 249 249 249 249 250 250 249 249 249 249 249 247 244 244 244 244 244 244 247 249 248 248 248 247 245 244 245 245 247 248 247 249 249 247 249 252 254 254 255 256 256 254 254 253 256 257 257 257 258 258 256 256 256 257 257 257 257 257 257 257 257 258 258 258 258 259 259 259 259 259 259 259 259 259 259 259 259 259 259 259 259 259 259 259
248 248 248 248 247 246 247 248 249 250 250 250 248 246 245 244 244 244 244 244 244 243 243 245 247 247 248 247 244 245 247 248 249 247 245 246 250 252 253 253 254 255 255 254 254 254 254 255 256 257 257 257 257 255 255 255 256 256 256 256 256 257 257 257 257 257 257 258 258 258 258 258 258 258 258 258 258 258 258 258 257 257 258 258 257 257 257
248 247 247 246 246 246 247 248 249 249 249 249 247 246 244 241 241 242 242 242 242 242 243 242 242 241 242 242 242 243 244 244 247 248 246 247 249 248 250 247 252 254 255 255 255 255 255 255 256 256 256 256 254 253 254 254 255 255 255 255 255 256 256 256 256 256 256 257 257 257 257 257 257 257 257 257 257 257 257 257 257 257 257 257 257 257 257
247 246 246 246 246 247 248 248 248 248 246 245 246 245 244 242 242 243 243 241 241 243 242 241 240 239 240 244 246 244 245 247 246 247 248 249 249 249 249 251 253 254 254 253 252 251 254 255 255 255 256 255 252 252 253 254 254 255 255 255 255 255 255 255 256 256 255 255 256 256 256 256 256 256 256 256 256 257 257 256 256 256 256 256 256 256 256
246 246 247 247 248 248 248 248 248 247 245 244 244 243 242 243 245 243 244 242 243 246 241 240 240 241 240 239 240 241 242 243 246 247 248 248 247 248 250 250 251 253 253 252 250 252 252 253 253 254 254 253 252 252 252 253 253 254 254 254 254 254 255 255 255 255 255 255 255 255 255 255 255 255 256 256 256 256 256 256 256 255 255 256 256 256 255
248 248 247 247 246 245 245 246 246 244 243 243 242 243 244 243 243 245 243 243 240 243 243 244 242 241 239 239 240 242 243 243 245 250 248 248 246 250 251 251 251 252 252 252 250 250 249 249 250 252 253 253 252 252 252 253 253 253 253 253 253 253 253 254 254 254 254 254 254 254 254 254 254 254 254 254 255 255 255 254 255 254 255 255 255 254 254
247 247 246 245 245 244 244 243 242 242 242 242 242 243 243 243 243 242 243 248 242 242 242 243 245 241 240 241 244 244 243 245 246 245 248 248 248 246 249 251 249 249 249 249 249 248 249 250 252 252 253 252 252 252 252 253 252 252 252 253 253 253 253 253 253 253 253 253 253 253 253 253 253 253 253 253 253 253 253 253 253 253 253 253 253 253 253
Wind_Speed
5 2 4 7 5 8 10 13 13 12 12 10 13 15 15 8 10 17 4 11 9 8 9 12 12 11 11 10 8 6 6 5 4 4 4 4 3 1 4 9 9 8 8 7 8 9 9 9 10 8 6 6 5 5 4 5 5 6 6 6 6 7 7 7 8 8 7 7 7 8 8 8 9 9 9 8 8 7 6 7 7 7 7 7 9 9 9
4 2 3 4 8 3 2 8 12 15 14 16 18 18 17 14 11 12 6 12 15 6 10 13 9 7 7 4 4 3 4 2 2 2 4 6 7 8 7 6 6 5 5 6 6 6 7 8 8 8 8 8 7 7 7 6 6 6 5 5 5 5 5 5 5 6 6 6 7 7 8 8 9 9 9 9 8 8 8 7 8 7 7 7 8 9 10
5 1 1 0 4 5 6 5 7 10 13 16 19 17 16 10 9 5 2 2 10 7 8 7 1 6 2 4 4 1 1 1 3 4 4 4 4 4 4 4 6 5 5 5 5 6 6 7 7 7 7 6 6 5 5 5 6 5 4 4 4 4 5 5 5 5 5 5 5 6 6 6 7 7 9 8 8 9 8 8 9 8 7 8 8 8 9
3 1 3 2 2 0 2 4 6 11 12 12 11 10 6 6 10 12 9 8 14 4 8 5 3 2 3 5 5 1 1 1 3 4 3 3 2 2 3 3 4 5 6 6 7 7 7 6 6 6 8 8 7 8 8 8 8 7 6 6 6 6 5 5 5 5 5 5 5 5 5 6 6 7 7 7 7 8 8 9 8 6 7 9 9 8 8
4 2 4 7 5 2 3 9 14 19 15 12 9 7 5 12 16 12 8 16 13 4 10 7 3 6 8 6 3 1 0 1 4 5 4 1 0 0 1 2 4 4 5 5 5 6 6 7 7 7 6 7 8 9 10 10 9 9 9 8 9 8 8 8 8 9 9 10 9 9 8 7 6 6 6 6 6 7 9 7 6 7 8 8 9 8 8
1 1 3 3 6 7 12 7 6 10 15 16 10 9 16 16 10 8 8 6 3 8 6 11 9 8 6 7 6 3 8 7 4 2 2 1 0 1 1 1 2 3 3 4 5 4 5 5 5 6 5 5 7 7 7 7 8 9 10 11 9 10 9 10 10 10 10 11 12 11 10 11 10 9 9 9 8 7 8 7 6 8 7 8 8 8 8
3 2 2 5 8 12 4 3 4 13 10 6 15 16 8 4 5 7 9 9 5 9 9 7 7 8 5 1 5 3 3 5 6 5 2 1 0 1 2 3 3 2 3 3 4 4 4 5 5 4 5 4 5 5 6 7 6 8 7 7 8 8 9 9 9 11 12 11 12 13 12 12 12 12 11 12 12 10 9 9 10 10 9 9 9 7 8
4 3 5 6 8 2 0 4 1 2 6 4 5 8 7 6 10 12 14 17 11 6 6 3 2 8 4 4 2 4 4 4 5 4 3 1 0 1 1 2 4 4 4 5 4 5 4 3 4 3 5 6 7 8 4 4 6 6 7 7 7 8 10 10 10 10 10 12 12 11 12 12 12 12 12 11 12 12 11 10 8 7 8 7 9 10 8
6 6 9 8 4 7 2 3 3 7 8 7 11 10 11 12 10 11 12 12 6 4 5 4 5 5 5 5 1 1 2 2 2 4 1 1 0 1 2 1 3 3 4 4 5 4 5 5 6 7 6 6 7 8 9 8 8 8 7 8 8 9 9 9 9 9 9 10 11 11 10 11 12 11 12 13 12 8 11 11 10 10 10 10 8 9 10
5 4 3 1 4 11 12 6 0 3 5 8 7 6 8 4 11 14 13 13 11 7 4 6 7 6 7 4 7 5 4 3 1 0 0 0 1 1 3 3 3 3 3 3 4 4 6 7 5 6 7 8 9 9 10 9 10 11 10 10 9 10 10 10 10 10 9 9 10 11 10 10 11 11 10 9 9 7 9 12 13 11 9 11 10 7 9
5 5 6 6 9 11 7 3 5 6 7 10 6 3 10 6 8 9 11 11 9 9 10 8 9 8 8 10 7 7 5 4 2 1 0 1 1 2 2 3 5 6 6 6 5 5 5 7 8 6 5 5 6 8 7 8 8 8 9 9 9 11 12 11 10 10 9 9 9 10 11 11 9 11 11 10 10 8 8 8 11 10 9 9 11 9 7
7 6 7 8 3 6 3 2 1 3 5 8 7 5 9 5 6 10 10 11 13 10 10 13 10 11 10 9 7 7 7 6 4 3 1 1 3 4 4 4 3 4 5 7 9 9 8 8 7 8 6 5 5 6 7 6 7 8 8 9 9 9 9 10 9 9 7 8 9 8 10 11 9 9 8 9 9 8 9 8 9 10 8 8 11 11 7
10 11 8 3 6 4 3 3 3 4 4 8 9 15 3 2 6 5 9 12 5 9 10 11 10 7 4 4 6 9 5 4 1 0 0 1 1 2 3 3 5 4 4 4 5 6 7 7 7 6 5 6 8 7 7 7 8 8 8 8 9 10 10 11 11 10 9 6 9 10 7 9 10 9 7 8 10 8 10 9 9 10 10 9 9 11 8
11 9 12 11 3 4 5 0 7 6 9 8 11 5 1 5 6 2 1 5 5 9 12 8 3 5 4 8 7 6 5 5 3 0 0 1 1 1 1 3 3 3 4 5 6 6 5 5 5 5 4 5 6 7 7 9 8 7 8 9 9 10 11 12 12 11 11 11 8 8 9 8 10 12 9 6 8 8 7 8 10 12 10 8 9 11 9
2 4 7 6 12 3 8 10 2 2 4 6 6 3 2 1 2 5 2 5 7 10 6 4 10 8 6 7 7 6 4 4 2 1 0 1 2 3 3 3 3 1 3 5 6 7 7 6 5 5 5 5 7 6 9 10 8 8 8 9 9 10 11 12 12 12 11 11 11 8 9 8 9 12 11 8 8 6 7 9 9 11 10 8 9 10 10
7 10 10 6 3 4 6 10 9 7 9 2 4 8 3 2 3 4 5 1 5 4 12 11 8 8 8 5 5 5 3 2 0 0 1 1 2 2 3 3 3 2 3 4 6 6 5 4 3 4 4 5 7 8 11 10 8 8 9 9 9 10 10 11 11 12 11 11 10 8 9 9 9 10 11 10 8 7 6 7 8 10 9 7 8 9 10
8 6 5 4 3 8 7 0 1 3 2 1 3 3 6 8 3 3 6 8 5 5 10 9 9 6 5 6 4 6 4 3 2 2 2 1 1 1 2 3 2 1 4 5 7 7 6 7 5 4 3 5 7 8 9 7 9 10 10 10 10 11 11 11 11 10 11 11 10 10 9 7 9 10 11 8 10 8 5 6 7 8 9 7 8 9 9
1 1 0 0 1 0 1 2 1 0 1 0 2 5 7 1 5 7 10 8 7 6 7 11 3 6 6 6 4 3 3 3 2 1 1 1 0 1 1 2 2 2 3 4 5 7 8 7 8 5 4 4 7 9 7 8 9 9 10 11 12 13 12 12 12 11 12 13 11 9 9 7 7 8 9 10 9 10 7 7 7 8 8 7 7 8 9
6 7 4 4 2 1 1 1 1 2 1 1 2 4 4 6 6 5 4 9 8 8 6 9 9 7 5 6 5 3 2 2 2 2 2 1 0 2 3 4 5 5 5 5 5 5 7 5 6 6 5 5 6 8 8 7 8 9 9 10 11 11 11 11 11 9 10 10 10 10 9 7 7 7 7 7 8 9 8 8 8 7 7 7 7 7 8
6 4 1 1 1 1 1 1 4 3 2 4 3 3 4 7 6 6 6 7 8 5 7 7 10 7 4 6 4 3 2 1 1 1 0 1 2 2 2 4 4 5 5 5 6 7 8 8 7 7 7 7 7 8 8 8 8 8 8 9 11 12 12 10 10 9 9 11 11 9 9 8 8 9 8 7 8 10 9 8 8 9 8 8 7 7 8
1 2 1 2 2 2 1 0 1 1 4 6 7 6 8 8 11 9 7 5 4 5 6 6 8 8 4 3 2 1 0 1 1 2 3 3 3 4 5 4 4 5 5 7 7 8 9 7 8 8 9 9 9 9 9 8 8 8 10 10 11 12 11 9 9 8 8 8 8 9 10 9 7 8 9 9 9 10 8 7 8 9 9 9 9 7 7
3 9 8 7 5 3 5 5 6 5 4 6 9 7 8 7 9 8 11 7 7 7 5 4 5 7 4 3 2 1 1 1 2 2 3 3 4 4 4 4 5 5 6 6 8 8 8 7 8 9 9 9 8 8 8 7 7 8 10 11 12 12 10 10 10 10 9 9 8 8 9 9 10 11 9 13 11 10 10 9 14 16 14 11 9 7 8
8 7 6 11 4 2 1 9 7 7 6 8 11 8 9 5 5 7 11 10 5 6 6 4 6 5 4 2 2 0 0 1 2 3 4 5 6 7 6 6 5 6 6 6 7 8 8 7 8 9 9 9 9 8 7 8 9 10 10 11 12 11 11 10 11 11 11 11 10 9 8 9 8 10 12 10 12 17 18 14 12 14 16 19 19 14 9
2 3 7 9 6 7 5 7 8 7 5 7 9 6 5 6 6 5 5 5 10 6 4 5 5 5 4 2 1 0 2 1 4 4 3 4 4 4 4 4 6 7 7 7 8 10 9 9 10 10 10 9 9 8 8 10 10 10 10 11 12 12 11 11 13 12 11 11 12 11 10 9 8 9 10 12 13 10 13 17 15 14 15 15 14 14 15
4 2 4 3 4 7 5 7 5 3 3 5 10 9 8 7 5 4 8 6 4 7 7 5 3 4 3 2 2 1 1 3 3 4 4 4 5 5 5 5 6 7 9 8 8 9 9 10 11 10 9 9 7 8 10 10 10 11 12 12 13 13 12 12 12 13 12 11 11 10 11 10 10 8 8 9 11 13 8 9 14 13 13 14 15 15 15
5 6 6 6 5 7 7 7 4 1 3 5 6 5 4 5 6 8 7 7 6 5 5 5 5 3 3 2 2 1 2 3 4 5 4 5 6 6 6 7 9 8 9 9 9 9 10 11 11 10 10 9 11 12 11 11 10 11 11 12 12 11 11 12 12 12 11 11 11 11 10 10 9 9 9 9 10 10 11 10 7 8 11 13 13 14 14
4 11 13 10 6 3 5 9 10 9 6 3 7 9 6 7 7 7 7 7 6 5 5 4 4 2 2 3 4 4 4 4 4 4 3 5 6 6 7 8 9 10 10 9 9 9 11 11 10 11 12 12 11 11 11 12 11 11 11 12 11 13 18 15 10 11 10 10 11 11 11 10 10 9 9 9 8 9 9 9 10 9 7 5 7 10 9
9 3 1 9 8 10 13 4 7 10 6 8 9 10 8 7 8 7 7 6 4 3 4 4 5 6 5 5 5 5 4 4 5 5 6 5 6 7 7 8 9 9 9 9 9 8 9 10 11 12 12 10 10 10 11 11 11 11 11 11 12 11 11 12 11 10 10 10 10 11 11 11 11 10 9 9 9 9 9 9 9 9 8 5 4 5 9
3 1 3 2 2 5 10 10 9 10 9 4 5 6 8 9 5 6 5 5 4 3 3 3 4 4 3 3 3 3 4 4 4 5 6 7 7 8 9 9 9 8 9 9 8 8 10 11 12 12 11 9 9 10 9 9 10 11 11 10 11 11 10 9 9 9 8 10 9 10 12 13 11 11 10 9 8 8 8 9 8 7 7 5 3 4 5
1 1 1 3 8 13 14 9 11 9 9 9 9 5 4 8 7 4 4 3 2 2 2 3 4 3 2 2 1 1 3 4 5 6 7 6 7 7 8 9 9 7 6 6 8 10 11 11 12 13 12 10 10 9 10 11 11 12 13 14 12 11 11 11 12 13 12 11 12 16 13 11 10 10 10 9 9 8 8 8 8 7 6 5 4 5 5
3 3 4 4 7 5 10 11 8 8 8 6 7 8 4 2 5 6 5 4 2 2 1 1 0 0 1 0 1 2 3 4 5 5 5 6 6 6 6 7 9 11 11 11 11 11 11 12 11 11 12 11 10 11 13 13 13 13 12 11 11 15 19 21 16 12 10 12 12 11 10 10 10 10 10 9 8 8 8 7 7 7 5 5 5 5 5
11 6 7 4 3 4 4 4 7 8 8 5 6 9 12 11 9 10 7 6 5 3 2 1 1 2 2 1 2 3 3 4 5 5 5 5 4 4 5 6 6 9 10 11 11 11 11 12 13 11 9 11 12 13 13 13 13 12 12 12 12 11 11 17 12 12 12 12 13 12 11 10 10 9 10 9 9 8 8 7 7 7 6 6 6 5 4
13 6 1 1 2 3 4 5 10 10 10 12 11 4 4 1 2 4 6 5 4 3 2 3 3 1 2 2 2 3 4 5 5 6 4 3 4 5 5 5 6 7 9 9 10 11 11 12 11 10 11 12 13 13 12 13 12 12 11 11 11 12 13 13 13 13 12 12 12 11 10 9 8 9 10 9 8 7 7 8 7 7 6 5 5 4 3
20 18 19 18 18 15 14 13 10 9 5 1 2 4 5 3 4 5 5 4 4 3 4 4 3 2 2 1 3 3 4 4 4 3 4 6 6 5 5 6 6 8 9 10 9 8 7 6 9 11 13 13 12 11 11 11 11 11 12 12 12 12 12 12 12 11 11 12 11 13 12 11 11 10 10 9 8 8 7 7 6 5 5 4 4 3 4
9 3 5 15 12 9 12 16 16 14 12 11 7 5 5 5 6 6 4 6 5 5 4 4 2 2 1 1 2 3 2 3 5 5 6 6 7 7 7 8 8 7 7 6 7 6 5 8 12 13 13 12 12 11 11 12 11 11 12 12 13 12 12 12 12 11 12 13 12 11 11 10 10 10 10 10 9 6 7 6 6 5 5 5 4 1 2
9 8 6 7 5 3 4 6 11 15 15 14 12 11 10 8 7 6 6 4 3 2 2 2 3 2 2 3 2 2 3 4 4 5 6 6 7 6 7 9 10 10 8 5 4 3 8 10 13 18 14 12 12 11 12 12 12 11 11 12 11 12 12 12 12 12 12 11 11 11 10 12 12 11 10 9 8 7 7 7 6 6 6 5 5 5 4
2 10 8 7 5 5 5 6 10 12 11 11 11 10 9 7 7 4 4 3 3 3 3 3 3 2 2 2 2 3 3 3 3 5 5 6 6 5 7 8 8 8 10 9 6 7 10 9 15 21 14 10 11 11 12 18 12 11 11 11 11 11 11 11 11 11 12 10 9 10 10 11 11 10 7 8 8 7 7 6 4 5 6 6 5 5 4
5 9 10 10 9 9 7 5 6 11 13 12 6 6 9 9 7 6 5 5 4 4 3 4 3 3 1 1 1 3 3 4 4 5 5 6 6 6 6 7 8 7 7 7 9 10 9 13 19 14 10 10 10 11 13 19 21 15 11 11 10 10 11 12 12 12 11 10 9 8 9 9 9 9 8 7 7 6 5 5 4 6 5 5 5 5 4
8 7 9 9 8 10 10 8 7 7 12 16 12 9 6 8 6 6 5 5 4 3 3 3 1 0 0 1 2 3 4 4 4 5 6 7 5 4 6 8 7 6 7 8 9 10 10 12 13 11 10 10 12 11 13 18 20 13 11 11 11 10 11 11 11 11 11 10 10 9 9 10 10 9 8 7 6 5 4 4 5 4 5 6 5 5 5
9 10 12 11 11 10 10 9 7 8 5 8 13 12 8 8 7 6 5 4 2 3 3 2 2 0 0 1 2 4 4 4 5 5 7 5 4 4 4 6 5 5 6 9 9 8 12 19 13 9 10 10 11 11 12 17 18 12 11 10 10 10 10 11 11 11 11 10 11 11 10 9 9 8 6 5 4 4 3 4 5 4 5 4 4 4 4
10 11 9 10 10 9 10 11 10 7 7 7 6 7 7 7 6 6 5 4 2 3 2 2 1 1 1 2 3 4 4 5 4 5 5 4 4 3 4 7 5 4 5 7 8 9 12 11 9 10 9 10 10 13 13 17 14 10 10 9 9 10 10 10 10 10 10 10 9 10 10 9 8 7 4 4 3 2 2 3 3 4 4 4 4 4 5
9 9 10 10 10 10 9 9 10 11 6 5 5 5 6 5 6 5 4 3 2 2 2 1 3 1 1 1 1 2 4 4 4 5 4 3 4 3 5 6 5 5 10 12 11 9 8 8 8 8 9 11 11 19 22 15 10 9 9 9 9 9 10 10 9 9 9 8 8 8 6 6 5 5 4 3 2 1 1 2 3 3 3 4 4 4 4
11 13 12 11 10 10 10 10 10 10 9 7 5 5 5 5 5 4 3 3 2 2 2 1 0 1 0 0 1 3 4 4 4 6 7 4 5 6 5 6 6 7 13 11 9 7 8 7 8 6 13 15 13 21 20 11 9 9 8 8 9 9 8 8 8 8 8 8 7 7 6 5 4 3 3 3 3 3 3 3 3 3 4 4 5 5 4
10 9 10 11 11 9 10 9 10 10 10 7 6 6 7 5 5 6 5 4 2 2 2 1 0 0 0 0 0 2 5 4 4 4 6 8 5 2 3 2 5 8 13 9 7 7 7 7 7 13 19 20 21 20 12 8 9 9 9 9 9 8 8 8 8 8 8 8 8 7 7 6 5 4 4 4 4 4 4 4 4 4 4 5 5 5 4
10 9 10 10 11 10 9 9 11 11 9 8 8 6 6 6 4 4 4 4 3 2 2 2 1 1 1 1 2 3 4 5 4 3 2 4 6 5 2 6 8 7 9 12 8 6 6 7 11 18 17 20 19 17 9 8 8 9 9 9 9 9 9 8 8 8 8 8 8 8 7 7 6 6 4 4 4 4 4 4 4 4 4 5 5 4 4
9 9 10 11 11 9 7 8 8 9 11 10 9 6 5 5 5 3 2 3 2 2 1 1 1 1 1 1 2 3 4 6 6 5 6 6 5 6 7 7 7 7 12 13 5 7 6 12 15 16 17 18 18 10 7 8 8 8 9 9 8 9 9 9 9 8 8 8 7 7 7 7 7 6 6 5 5 4 4 5 5 5 5 5 4 4 4
10 10 9 9 8 7 8 8 8 10 10 9 9 6 3 4 4 3 1 1 1 0 0 1 2 2 2 1 1 1 4 6 5 1 3 2 2 5 7 9 9 11 10 7 6 6 7 9 11 15 16 16 14 7 7 7 8 7 8 8 8 8 8 8 8 8 8 8 8 8 8 8 7 7 7 7 6 6 5 6 5 5 5 5 5 4 3
10 10 10 11 12 10 9 9 9 9 8 9 7 7 4 4 3 2 2 2 1 1 0 0 1 2 2 2 1 2 2 1 4 5 1 1 5 4 5 4 7 11 12 9 9 8 13 14 15 15 15 14 8 6 7 6 7 7 7 7 8 8 7 8 8 8 8 8 8 7 7 7 7 7 7 7 7 7 6 6 5 5 5 4 4 3 3
8 10 10 9 9 10 10 9 8 8 7 6 7 6 4 5 5 4 3 4 6 2 0 1 1 1 1 2 1 2 2 1 3 6 4 5 6 6 6 7 10 11 8 6 7 6 9 14 14 14 14 10 6 6 6 6 6 7 7 6 6 7 7 7 7 7 7 7 7 7 7 7 7 7 6 6 6 5 5 5 5 5 4 4 3 3 4
9 9 8 7 7 7 7 7 6 7 7 7 7 5 4 6 6 2 1 1 0 1 1 1 2 2 1 1 1 2 3 3 5 5 6 6 5 5 5 6 6 9 9 7 6 7 8 13 12 11 9 5 6 6 6 6 6 6 6 7 6 6 6 7 7 8 6 6 6 6 6 6 6 6 6 5 4 4 4 4 4 4 5 4 3 3 3
8 7 6 6 5 4 3 4 6 7 6 7 6 4 4 5 5 4 1 1 1 2 2 4 2 2 1 1 2 3 3 3 4 5 5 6 4 5 6 5 5 6 8 7 6 7 6 6 6 7 6 6 6 6 5 6 6 6 6 6 6 6 6 6 6 6 6 5 5 5 5 5 5 5 4 4 4 4 4 4 3 3 4 3 3 3 3
7 7 6 6 6 5 6 6 6 5 5 6 6 5 5 4 3 1 0 2 2 1 0 2 2 1 2 2 3 3 3 4 4 4 5 5 5 4 6 6 5 6 6 6 6 6 5 6 6 8 8 6 5 6 7 8 6 6 6 6 5 5 5 5 5 5 5 5 5 5 4 4 4 4 4 4 4 4 4 3 3 3 3 3 2 3 3
Wind_Direction
216 145 176 176 171 178 182 183 177 179 184 173 185 211 220 131 189 233 204 146 213 215 207 212 209 190 202 208 206 198 197 210 208 211 187 178 190 187 41 24 23 18 12 358 357 0 359 3 5 0 360 356 351 341 332 333 339 341 340 338 336 336 339 341 335 328 323 324 320 319 320 320 320 319 316 310 306 300 289 279 271 266 267 265 269 264 257
208 228 191 198 170 185 146 186 191 186 174 190 198 213 217 194 214 232 155 184 215 193 197 213 216 199 198 199 194 192 200 195 168 108 62 45 33 30 19 5 3 7 359 357 352 348 359 0 355 351 350 349 348 339 336 337 335 331 341 329 326 325 326 317 312 313 314 314 315 315 317 319 317 315 312 309 306 302 295 286 281 275 272 265 260 265 268
250 186 72 267 224 168 197 219 196 192 193 201 204 211 220 208 251 267 107 205 266 242 195 210 179 187 213 245 242 295 15 48 75 66 52 38 35 13 6 354 355 351 347 348 350 355 351 351 346 341 334 327 325 320 324 327 327 322 314 308 321 328 327 317 308 301 305 301 299 303 297 298 300 303 304 305 305 301 296 291 286 285 278 274 265 259 260
281 9 124 108 83 47 218 229 196 198 197 210 221 220 205 171 211 230 234 253 255 218 166 199 139 242 273 261 270 327 353 70 107 111 113 74 44 14 346 339 342 351 350 347 348 341 338 336 338 339 335 332 331 336 335 335 334 328 336 342 346 342 327 322 322 326 321 312 309 301 299 296 295 291 289 291 291 289 290 291 287 284 280 270 272 269 266
251 298 127 125 106 95 295 252 221 205 205 204 213 222 219 208 202 209 207 230 239 158 180 155 192 202 228 240 232 168 231 135 130 133 132 133 184 294 331 326 329 326 333 331 322 325 330 331 332 328 327 327 331 331 333 329 332 341 346 347 341 341 343 342 343 343 340 340 336 334 332 325 313 308 300 297 294 296 292 285 287 280 270 274 269 268 264
237 8 145 114 108 204 227 236 203 170 195 201 189 205 213 219 184 211 215 234 80 142 146 165 193 193 208 204 216 197 168 161 154 150 168 179 248 295 273 254 260 277 302 315 315 306 299 302 306 302 310 303 306 312 313 325 338 343 344 342 343 337 340 344 343 342 342 341 338 334 332 331 331 330 330 325 315 298 294 299 289 286 282 273 273 267 262
152 197 111 98 207 229 237 298 189 188 191 165 202 220 227 222 232 272 289 268 199 180 182 180 182 188 213 93 129 123 143 134 138 144 166 186 9 323 311 325 317 293 278 290 302 312 314 313 307 310 310 312 310 321 335 337 339 335 338 330 333 336 337 337 342 343 341 340 336 334 333 334 334 333 333 328 329 327 321 317 313 305 302 298 285 274 270
63 97 167 202 229 221 326 278 0 40 124 167 161 269 269 218 201 202 232 240 237 156 205 220 134 166 133 92 66 134 162 141 141 132 134 126 161 349 304 303 302 312 318 312 307 302 291 298 303 312 324 331 338 332 330 331 333 336 332 333 330 338 338 338 340 339 338 333 331 331 330 330 330 328 328 327 324 324 320 314 304 293 290 279 284 288 280
170 180 201 225 8 338 263 254 233 161 161 158 170 213 245 222 208 199 220 237 232 154 194 132 109 105 95 99 197 275 215 198 151 133 145 182 231 238 267 236 271 278 279 290 300 309 324 335 341 344 339 342 339 334 342 344 342 339 340 337 339 337 331 330 331 332 332 327 324 323 323 323 321 321 324 322 321 321 313 311 308 307 300 294 291 288 288
156 156 179 261 247 249 238 220 342 155 160 156 173 161 265 214 206 204 207 224 228 185 135 127 143 127 92 187 237 238 239 231 215 293 276 301 253 253 275 296 298 305 308 312 321 342 333 334 339 341 346 345 343 341 339 341 344 339 341 335 334 333 328 329 326 326 325 321 316 316 316 315 313 310 310 302 301 313 307 309 307 305 304 301 294 283 283
134 207 218 210 213 235 252 225 177 190 175 154 119 165 253 247 197 201 198 219 221 174 162 161 148 142 186 226 204 206 197 218 222 135 330 318 296 299 309 319 329 332 333 337 323 337 342 338 336 346 341 340 338 329 328 331 334 330 328 326 331 328 322 319 318 316 316 313 310 308 308 305 306 305 307 305 303 306 296 291 289 294 299 294 294 289 274
203 212 220 232 199 250 264 238 240 205 129 115 98 199 248 243 131 186 183 203 214 187 165 154 162 166 213 225 219 182 178 180 190 157 86 3 352 340 340 339 314 306 323 346 342 340 339 326 331 332 334 334 325 317 319 323 323 321 319 321 316 311 308 307 304 303 301 302 297 295 297 298 297 292 295 300 300 301 298 292 292 297 295 290 290 291 290
213 213 240 272 277 275 244 223 182 147 169 126 161 218 236 227 208 212 183 202 175 138 143 162 174 228 196 183 139 123 128 100 130 258 273 259 279 302 326 316 337 341 326 332 306 305 306 311 318 319 328 333 322 319 318 321 312 310 313 314 314 312 311 309 308 306 303 295 299 298 287 289 294 293 289 291 300 303 302 303 299 296 295 295 291 288 290
204 207 222 232 274 233 165 312 153 180 121 205 208 228 213 158 189 202 173 134 149 155 162 169 148 141 121 93 90 118 145 141 150 184 298 347 341 294 295 302 334 316 315 313 306 304 295 302 311 313 323 317 304 309 313 304 299 308 315 315 314 314 311 310 307 306 306 306 299 293 298 300 299 298 295 285 284 292 295 295 300 298 297 297 295 292 293
180 192 220 213 229 248 132 134 89 296 164 234 195 146 46 148 145 145 152 151 163 148 145 145 128 135 134 131 134 140 138 120 127 94 57 12 328 325 342 347 326 309 308 306 301 298 309 315 315 310 324 314 307 310 305 298 310 316 315 315 313 310 308 306 304 302 302 301 301 304 299 297 292 291 295 298 292 292 294 298 297 297 296 300 298 297 297
200 195 209 204 204 139 188 151 198 200 200 190 155 130 102 45 117 141 127 118 165 164 134 137 134 137 125 108 118 115 121 151 13 13 358 318 327 313 309 293 295 303 278 279 286 291 295 296 296 300 310 305 307 306 298 303 312 311 312 310 307 303 300 297 298 298 299 297 295 293 290 293 291 288 293 296 294 287 288 292 295 297 297 295 294 294 296
190 206 203 216 181 178 209 145 46 195 179 143 154 116 138 141 194 173 124 153 161 156 131 129 134 128 146 150 152 138 180 168 186 204 230 213 226 246 269 287 294 305 291 299 300 302 307 315 324 326 313 302 297 293 292 309 306 310 310 311 309 304 302 300 299 298 300 297 297 296 292 288 293 295 295 298 299 298 291 288 285 284 287 292 285 289 292
22 328 159 9 29 289 261 59 357 34 51 32 122 139 118 173 145 172 159 157 150 141 135 121 123 136 152 138 162 159 158 170 224 207 255 294 247 265 285 284 307 297 294 291 299 302 310 313 313 321 311 294 291 288 301 304 303 303 308 309 308 304 304 303 302 305 305 302 300 293 291 285 273 275 282 292 292 292 294 281 281 278 283 289 282 281 283
168 248 182 168 189 49 24 106 33 27 44 168 169 156 137 143 138 124 118 139 149 153 146 137 141 144 147 143 154 165 156 172 191 189 201 210 9 342 335 329 343 335 330 320 306 300 299 302 307 312 312 294 282 297 305 302 301 300 301 300 295 295 294 297 297 298 295 295 300 301 294 286 277 272 270 275 279 280 281 284 283 279 273 276 280 277 278
175 231 280 281 317 261 279 193 143 152 107 66 49 94 105 110 100 99 115 117 112 124 116 133 129 139 142 139 154 162 175 177 177 158 75 352 331 337 345 333 334 326 316 310 315 319 315 317 321 318 318 314 310 310 309 309 303 299 297 296 297 297 297 293 290 290 289 287 289 291 291 289 289 292 279 260 269 274 278 279 284 284 281 272 271 273 276
247 16 307 291 33 40 73 352 325 144 141 122 107 108 113 115 108 99 70 53 98 99 121 116 121 120 118 102 115 112 84 49 35 19 0 352 340 329 338 330 336 319 320 325 321 318 311 317 320 320 318 315 314 314 311 307 304 306 305 304 300 298 297 294 290 286 278 282 285 290 292 291 268 247 269 281 269 269 256 241 248 266 277 273 268 265 267
173 199 205 162 136 233 232 216 189 156 159 125 119 116 109 117 119 120 105 79 66 75 69 88 109 124 122 95 80 94 38 40 358 358 344 334 328 325 320 320 319 325 330 319 310 308 307 317 317 313 310 309 308 305 304 306 310 313 313 312 309 307 309 304 304 304 303 297 293 290 291 295 300 292 247 235 242 258 273 252 248 250 253 262 264 264 267
213 226 203 186 165 94 245 174 167 164 162 146 133 142 136 122 119 131 124 118 87 76 55 47 94 98 111 85 67 95 78 325 2 9 351 339 337 331 330 332 333 330 317 311 307 305 307 313 311 308 307 309 308 307 310 322 328 322 321 317 311 308 311 309 307 307 303 302 299 295 290 291 293 295 305 294 248 246 254 255 250 255 261 263 268 263 250
289 221 185 180 156 177 176 156 157 160 167 150 126 117 112 127 129 119 110 126 138 129 97 65 60 86 89 75 55 34 336 0 8 343 342 335 314 313 325 325 316 316 315 320 318 315 316 313 309 309 306 306 303 311 329 332 328 323 324 320 313 309 310 306 306 302 300 298 299 297 296 291 286 290 294 298 301 278 253 259 260 255 260 263 265 268 264
201 202 155 142 99 73 79 107 97 99 104 141 138 143 140 130 109 111 115 97 79 129 135 120 90 77 101 88 92 66 8 331 333 334 333 326 333 334 321 320 320 323 320 317 311 307 307 306 306 305 306 306 317 336 332 327 325 323 321 317 309 305 304 303 302 300 297 294 290 287 285 287 286 282 279 284 290 302 290 237 244 249 255 262 265 268 268
135 111 82 79 75 104 121 82 41 91 129 141 118 125 105 103 115 104 95 104 95 89 108 125 128 103 119 129 73 33 14 352 350 346 337 343 335 329 328 329 323 317 312 311 308 306 304 305 304 307 314 330 335 326 323 321 321 317 313 308 302 298 298 299 297 293 292 289 289 288 283 279 276 275 272 267 274 278 291 300 280 252 249 253 260 264 266
107 138 113 64 66 128 221 162 180 173 164 132 130 127 117 108 97 95 90 87 89 94 105 119 134 136 85 50 50 24 9 340 351 346 341 330 320 321 320 315 314 310 308 306 305 302 301 310 320 325 323 320 316 316 318 316 314 311 308 305 301 296 295 295 290 290 289 289 288 287 287 284 280 276 273 271 266 270 273 278 281 284 286 264 255 254 255
154 178 145 163 179 187 200 200 113 130 131 136 137 130 130 119 113 114 117 124 117 115 112 84 62 38 35 19 26 3 7 0 345 329 323 306 314 312 309 308 308 309 306 303 301 310 324 327 320 310 306 306 311 315 311 309 311 309 306 305 302 298 297 295 291 288 290 292 291 288 288 285 282 277 275 273 270 267 267 265 268 272 274 256 242 253 250
177 38 341 303 188 128 98 105 112 121 124 102 105 116 133 128 141 136 142 139 138 111 88 69 61 58 52 16 21 9 345 334 321 313 309 308 308 314 311 310 305 304 307 310 319 329 323 316 308 305 303 309 312 309 312 318 314 308 307 303 300 298 294 294 289 284 279 279 276 276 279 280 279 277 271 266 263 263 261 262 261 258 257 257 256 262 246
77 350 2 85 113 129 125 139 152 146 133 150 141 145 169 146 143 163 136 111 106 87 84 73 47 29 33 51 343 359 317 307 300 298 300 303 309 307 309 308 311 307 309 314 318 318 312 307 308 308 310 317 315 325 332 321 309 304 300 298 292 291 294 295 297 293 290 287 286 286 280 274 273 272 270 267 262 257 256 255 253 249 246 237 228 221 221
82 58 84 101 122 143 150 160 145 150 147 150 157 143 138 110 141 154 166 138 103 128 114 101 123 318 312 221 260 292 288 289 291 293 297 301 302 303 311 337 339 327 325 317 314 308 305 305 305 305 307 316 329 330 323 317 311 308 304 299 294 291 290 289 287 287 285 286 284 283 280 278 275 273 269 267 261 255 251 248 246 239 233 227 223 212 214
115 82 74 70 94 121 109 117 145 164 170 157 152 179 180 168 175 186 173 173 188 162 153 158 234 238 247 275 299 296 294 291 292 292 290 290 296 314 326 315 300 294 296 300 302 304 302 304 305 305 321 331 325 322 319 313 311 307 305 304 300 297 295 295 291 286 287 287 287 283 282 282 280 275 272 263 258 254 248 245 239 232 223 219 218 206 204
128 103 81 117 75 97 167 193 174 183 176 188 199 172 133 98 102 134 153 148 140 147 153 202 232 225 255 280 301 298 296 296 289 277 284 303 310 303 294 292 287 288 291 293 294 297 298 300 308 324 325 320 321 317 313 310 308 305 304 304 300 297 296 294 290 291 288 286 281 280 279 273 273 274 268 264 258 252 245 241 234 228 219 212 200 206 217
167 182 187 182 168 175 190 205 202 193 187 128 109 136 146 134 130 126 134 134 141 175 189 207 197 217 235 265 280 294 297 321 325 323 320 310 303 304 301 294 292 288 284 285 287 287 295 315 323 319 318 317 313 313 310 307 306 305 304 304 299 298 296 294 294 289 287 284 282 282 281 282 278 272 270 263 255 245 242 234 230 217 203 188 196 217 209
168 141 159 178 186 185 183 177 177 183 176 171 168 166 162 146 145 153 151 158 176 190 180 164 182 206 196 235 263 263 280 293 296 308 306 309 310 311 314 307 299 292 290 285 283 288 328 332 319 313 311 312 312 309 309 307 305 302 301 298 296 294 293 293 292 288 289 288 285 284 281 280 278 276 267 262 255 243 234 228 219 199 186 180 176 157 112
136 128 115 140 152 122 146 165 173 172 173 176 173 164 161 163 153 155 166 173 168 148 157 171 182 166 201 221 239 270 282 287 288 291 299 302 305 307 310 313 312 317 318 319 303 341 336 317 310 315 317 313 313 310 308 307 304 301 296 298 296 295 292 289 286 282 279 279 282 280 278 279 279 277 272 261 249 236 229 218 207 190 187 174 161 146 131
155 143 138 132 126 124 125 142 157 159 162 156 150 151 151 153 160 162 134 143 156 175 177 168 165 186 218 229 232 246 255 264 279 288 290 298 306 315 316 313 319 327 331 328 327 346 323 316 316 320 319 309 307 304 307 308 308 304 302 299 292 289 290 290 288 286 286 280 276 279 280 282 279 276 264 251 242 231 223 215 198 188 182 168 160 154 147
125 131 139 138 134 119 110 105 110 124 119 113 103 132 149 150 154 157 162 172 177 180 174 178 188 206 213 237 276 276 281 287 286 289 298 309 316 327 324 325 326 332 326 311 320 327 318 317 319 319 314 310 307 307 305 308 308 307 302 301 294 290 289 287 286 283 283 283 282 280 282 281 281 279 267 250 241 232 219 206 188 183 173 166 165 163 151
115 97 101 110 107 111 114 101 100 114 134 135 134 134 147 146 153 145 162 181 187 168 157 179 169 119 298 286 297 299 295 287 295 307 311 314 317 335 309 298 287 290 280 295 317 315 314 318 322 320 316 310 311 307 310 310 311 307 300 294 295 288 284 279 281 284 287 287 287 283 284 286 283 280 268 255 242 230 216 196 189 181 168 166 161 156 147
140 145 142 136 127 132 122 120 116 117 116 128 140 148 163 148 156 153 158 162 211 170 155 148 121 142 268 244 274 286 291 299 301 306 304 309 316 309 291 288 282 275 288 306 310 310 315 320 322 316 317 316 316 313 311 314 313 307 299 296 289 283 284 289 292 292 292 292 290 289 286 284 280 278 272 265 247 220 197 186 178 170 163 153 150 137 128
145 140 139 130 130 134 135 133 132 129 126 125 118 127 141 145 146 132 146 155 148 129 142 149 145 192 229 248 255 269 285 296 301 295 298 327 317 325 336 312 301 309 304 308 313 312 318 319 319 319 318 319 315 318 317 317 315 306 304 303 304 303 300 298 296 297 298 298 296 295 293 295 292 285 284 276 262 235 187 177 172 157 155 148 129 113 107
148 134 129 129 132 136 132 127 124 120 118 123 127 126 128 134 136 144 141 128 120 135 147 198 182 208 232 251 277 298 308 299 300 302 299 283 276 291 307 285 303 318 315 320 317 318 317 321 320 319 317 319 320 323 325 321 314 312 314 315 313 309 307 307 307 308 307 302 300 300 302 299 297 303 316 331 342 4 39 98 109 108 101 98 103 103 106
148 147 143 138 136 135 137 139 138 134 127 129 133 132 132 128 114 103 105 122 135 136 143 160 145 51 10 329 339 329 305 306 319 312 310 281 237 219 221 262 312 313 323 326 321 321 323 320 323 310 325 329 328 331 332 327 323 320 318 318 318 317 318 320 322 322 320 322 323 327 323 322 325 338 348 3 9 10 30 47 60 77 83 84 84 85 80
143 137 138 137 137 137 133 131 129 127 126 131 131 123 118 120 132 136 142 137 137 151 145 179 189 228 244 204 284 309 298 311 313 321 327 318 325 282 203 261 303 314 326 323 323 323 322 324 314 327 332 335 336 338 337 329 331 331 331 328 322 323 323 328 333 335 335 335 334 335 334 337 337 345 14 15 12 21 38 55 56 56 72 74 75 78 86
138 136 135 134 133 131 136 140 144 143 134 127 118 113 115 122 121 131 133 140 145 159 175 183 201 215 235 231 240 245 259 265 257 261 285 302 330 304 337 347 325 323 320 328 322 321 319 319 327 333 337 338 340 343 338 335 333 334 335 334 332 332 335 338 340 339 339 343 344 345 347 344 344 348 3 23 39 29 28 38 40 39 56 58 69 87 86
120 119 126 127 130 136 138 130 119 118 122 120 110 102 102 116 123 123 136 145 155 186 189 196 208 237 231 246 268 274 269 272 253 220 220 202 205 268 309 316 318 317 321 325 317 317 312 321 328 333 336 339 342 343 339 337 337 336 336 336 335 336 338 339 342 340 343 340 343 351 354 349 354 2 8 10 24 33 32 50 51 40 36 47 45 65 85
127 125 125 124 120 125 125 123 125 124 124 123 124 133 134 115 113 123 140 152 171 217 251 269 252 263 264 244 235 310 340 332 320 267 187 243 287 300 303 313 311 317 322 318 316 314 314 321 326 330 334 337 342 338 335 336 336 337 338 337 339 335 338 339 339 340 342 344 349 360 2 3 1 1 8 16 18 18 18 39 48 50 54 63 65 58 47
126 125 126 127 128 131 123 125 128 136 143 147 144 132 133 107 107 104 106 86 55 42 57 286 267 280 287 290 258 214 183 142 349 305 137 9 312 315 313 313 309 318 319 316 314 314 321 324 326 328 330 335 339 329 329 332 334 333 338 336 331 331 334 338 341 343 340 342 349 353 358 6 6 10 12 16 16 15 14 21 31 35 31 33 40 43 52
116 120 122 120 123 128 128 130 131 131 138 136 124 126 122 114 109 94 81 51 42 49 342 313 296 285 271 262 281 297 278 236 208 248 300 334 314 312 305 306 312 314 314 308 309 305 319 325 327 327 329 332 330 323 322 322 327 331 330 330 329 329 329 333 336 339 340 345 349 354 358 359 1 5 10 15 18 20 22 24 26 29 37 34 40 34 39
120 119 120 130 134 138 141 136 134 142 144 131 123 121 121 117 105 97 92 83 43 272 340 297 278 263 259 279 277 276 273 271 277 274 276 283 291 292 295 301 302 312 314 308 309 310 318 324 326 326 329 324 319 318 315 318 322 323 318 321 322 317 322 329 330 337 342 344 348 353 353 352 352 357 3 7 8 12 19 25 33 29 30 37 32 27 25
131 126 126 113 100 94 79 104 133 137 133 125 123 119 109 112 126 120 120 146 87 41 4 327 290 270 274 291 280 281 278 278 274 280 289 290 290 296 303 302 306 307 309 309 305 305 308 314 312 320 323 317 313 315 312 318 316 315 316 313 314 315 317 326 328 332 333 337 336 338 343 342 343 344 353 356 355 359 7 6 11 20 20 25 24 23 18
89 91 96 108 107 101 97 91 89 91 96 96 99 99 102 110 109 112 10 154 115 124 70 25 342 284 200 255 297 294 287 286 287 289 290 290 294 288 298 309 306 301 301 297 297 298 299 303 313 318 318 315 310 314 316 316 311 308 306 309 306 307 309 310 317 320 316 329 329 328 330 335 333 332 338 343 348 346 351 355 3 3 8 356 1 3 5